Left ArrowRight Arrow

41.76142, -88.44369

Hourly Observations for June 16, 2024

Temp ( °F °C ) Dew Point ( °F °C ) Humidity (%) Winds ( mph kmh ) Pressure ( in mb ) Visibility ( mi km ) Precip ( " mm )
12:52 am 00:52 Clear 71 21.7 52 11.1 51 51 SE 10 17 29.95 1014 10 16 0.00 0.00
1:52 am 01:52 Clear 70 21.1 52 11.1 53 53 SSE 9 15 29.95 1014 10 16 0.00 0.00
2:52 am 02:52 Clear 68 20 53 11.7 59 59 SE 8 13 29.93 1014 10 16 0.00 0.00
3:52 am 03:52 Clear 69 20.6 53 11.7 57 57 SE 9 15 29.93 1013 10 16 0.00 0.00
4:52 am 04:52 Partly Cloudy 69 20.6 53 11.7 57 57 SSE 9 15 29.93 1014 10 16 0.00 0.00
5:52 am 05:52 Cloudy 72 22.2 53 11.7 51 51 SSE 10 17 29.93 1013 10 16 0.00 0.00
6:33 am 06:33 Mostly Cloudy 72 22.2 53 11.7 51 51 SSE 13 20 29.92 1013 10 16 0.00 0.00
6:52 am 06:52 Mostly Cloudy 72 22.2 52 11.1 49 49 SSE 13 20 29.92 1013 10 16 0.00 0.00
7:52 am 07:52 Partly Cloudy 74 23.3 53 11.7 48 48 SSE 13 20 29.91 1013 10 16 0.00 0.00
8:52 am 08:52 Mostly Cloudy 77 25 56 13.3 48 48 SSE 18 30 29.90 1013 10 16 0.00 0.00
9:47 am 09:47 Sunny with Thunderstorms 81 27 61 16 51 51 S 15 24 29.88 1012 10 16 0.00 0.00
9:52 am 09:52 Sunny with Thunderstorms 81 27.2 60 15.6 49 49 S 17 28 29.89 1012 10 16 0.00 0.00
10:08 am 10:08 Sunny 82 27.8 61 16.1 49 49 S 13 20 29.87 1012 10 16 0.00 0.00
10:52 am 10:52 Sunny 84 28.9 64 17.8 51 51 S 17 28 29.87 1012 9 14 0.00 0.00
11:52 am 11:52 Mostly Sunny 88 31.1 68 20 52 52 S 14 22 29.86 1011 9 14 0.00 0.00
12:52 pm 12:52 Sunny 91 32.8 69 20.6 49 49 SSW 13 20 29.84 1011 8 13 0.00 0.00
1:52 pm 13:52 Sunny 92 33.3 68 20 46 46 SSW 16 26 29.82 1010 8 13 0.00 0.00
2:52 pm 14:52 Mostly Sunny 93 33.9 67 19.4 43 43 SSW 18 30 29.81 1010 9 14 0.00 0.00
3:52 pm 15:52 Mostly Sunny 93 33.9 67 19.4 43 43 SSW 15 24 29.80 1009 8 13 0.00 0.00
4:44 pm 16:44 Mostly Cloudy with Haze 82 27.8 62 16.7 51 51 W 28 44 29.83 1010 6 10 0.00 0.00
4:52 pm 16:52 Partly Cloudy 80 26.7 62 16.7 54 54 WSW 23 37 29.85 1011 8 13 0.00 0.00
5:11 pm 17:11 Partly Cloudy with Nearby Thunderstorms 77 25 63 17.2 62 62 WSW 23 37 29.84 1011 9 14 0.01 0.13
5:37 pm 17:37 Mostly Cloudy with Light Rain 74 23.3 66 18.9 76 76 WSW 8 13 29.84 1011 4 6 0.03 0.76
5:52 pm 17:52 Partly Cloudy with Light Rain 74 23.3 67 19.4 79 79 WSW 6 9 29.85 1011 4 6 0.04 1.02
6:52 pm 18:52 Cloudy 76 24.4 69 20.6 79 79 W 6 9 29.83 1010 8 13 0.01 0.25
7:52 pm 19:52 Sunny 77 25 69 20.6 77 77 Calm 29.83 1010 9 14 0.00 0.00
8:52 pm 20:52 Clear 74 23.3 69 20.6 85 85 S 5 7 29.83 1010 7 11 0.00 0.00
9:52 pm 21:52 Clear 74 23.3 68 20 82 82 SSE 6 9 29.84 1011 9 14 0.00 0.00
10:52 pm 22:52 Clear 72 22.2 67 19.4 84 84 SE 3 6 29.86 1011 9 14 0.00 0.00
11:52 pm 23:52 Clear 71 21.7 67 19.4 87 87 E 3 6 29.87 1012 8 13 0.00 0.00

Powered by Vaisala Xweather